Regional Weather Roundup
Issued by NWS Spokane, WA

Home | Current Version | Previous Version | Text Only | Print | Product List | Glossary On
Versions: 1 2 3 4 5 6 7 8 9 10 11 12 13 14 15 16 17 18 19 20 21 22 23 24 25 26 27 28 29 30 31 32 33 34 35 36 37 38 39 40 41 42 43 44 45 46 47 48 49 50
000
NZUS01 KOTX 201310
RWROTX
EASTERN WASHINGTON/NORTHERN IDAHO ROUNDUP
NATIONAL WEATHER SERVICE, SPOKANE WA
600 AM PDT MON OCT 20 2014

Note: "fair" indicated few or no clouds below 12,000 feet with no
significant weather and/or obstructions to visibility.

...NORTHEAST WASHINGTON AND NORTHERN IDAHO PANHANDLE...

CITY           SKY/WX    TMP DP  RH WIND       PRES   REMARKS
SPOKANE INTL   CLEAR     47  45  93 NE6       29.74S
SPOKANE DOWNTO CLEAR     49  45  86 CALM      29.75R
COEUR D ALENE  CLEAR     45  41  87 E9        29.76F
DEER PARK      CLEAR     42  41  96 CALM      29.75S
SANDPOINT      FOG       36  36 100 CALM      29.78F VSB 1

...SOUTHEAST WASHINGTON AND SOUTHERN IDAHO PANHANDLE...

CITY           SKY/WX    TMP DP  RH WIND       PRES   REMARKS
WALLA WALLA    CLEAR     49  45  86 CALM      29.73R FOG
PULLMAN/MOSCOW CLEAR     52  38  58 NE6       29.78R
LEWISTON       CLEAR     50  42  74 SE3       29.76R
LOWELL           N/A     43  41  93 NW6       29.90S

...COLUMBIA BASIN...

CITY           SKY/WX    TMP DP  RH WIND       PRES   REMARKS
EPHRATA        CLEAR     49  45  86 N3        29.70R
MOSES LAKE     CLEAR     42  40  92 NW3       29.71R FOG
TRI CITIES     PTCLDY    42  42 100 CALM      29.72S
HERMISTON      CLEAR     43  40  89 S5        29.73S
PENDLETON      CLEAR     44  41  89 N3        29.73S

...EAST SLOPES CASCADES...

CITY           SKY/WX    TMP DP  RH WIND       PRES   REMARKS
THE DALLES     MOCLDY    54  50  86 NE5       29.73S
YAKIMA         MOCLDY    45  43  93 CALM      29.73R
ELLENSBURG     CLOUDY    48  44  86 S3        29.72S
WENATCHEE      MOCLDY    53  48  83 W7        29.71S
OMAK           MOCLDY    43  41  93 W3        29.72S

...SOUTHERN BRITISH COLUMBIA...

CITY           SKY/WX    TMP DP  RH WIND       PRES   REMARKS
CASTLEGAR      FOG       45  45 100 CALM      29.79  VSB 1/2

...WESTERN MONTANA...

CITY           SKY/WX    TMP DP  RH WIND       PRES   REMARKS
MISSOULA       PTCLDY    33  32  96 N3        29.93S

...NEIGHBORING CITIES...

CITY           SKY/WX    TMP DP  RH WIND       PRES   REMARKS
SEATTLE        CLOUDY    59  56  89 S5        29.71R
CALGARY        PTCLDY    43  32  65 S3        29.69S



USA.gov is the U.S. government's official web portal to all federal, state and local government web resources and services.